Voltar ao catálogo

TITAN 3C TRANSTAGE DEB

AtivoMEO
NORAD 43515·DEBRIS·🇺🇸 United States

Lançado Feb 9, 1969 de Cape Canaveral Space Force Station

Loading…

Próximas Passagens (próximas 24 horas)

TLE

EnvelhecendoSource: Space-Track

Época: Aug 29, 2026, 18:51 UTC

1 43515U 69013T   26241.78575905 -.00000184  00000-0  00000-0 0  9992
2 43515   1.9912  60.0111 0329603 146.7752 216.1539  0.95443792 28927

Acompanhe TITAN 3C TRANSTAGE DEB em tempo real com AllMySat

Download on the App Store